Regional Weather Roundup
Issued by NWS Wakefield, VA

Home | Current Version | Previous Version | Text Only | Print | Product List | Glossary Off
Versions: 1 2 3 4 5 6 7 8 9 10 11 12 13 14 15 16 17 18 19 20 21 22 23 24 25 26 27

000
ASUS41 KAKQ 231710
RWRAKQ

REGIONAL WEATHER ROUNDUP
NATIONAL WEATHER SERVICE WAKEFIELD VA
100 PM EDT WED APR 23 2014

Note: "fair" indicates few or no clouds below 12,000 feet with no
significant weather and/or obstructions to visibility. * = Denotes
station may not report precipitation (e.g., rain,snow,etc.),
thunder or fog.

VAZ042-051-052>054-056-231800-
NORTHERN VIRGINIA

CITY           SKY/WX    TMP DP  RH WIND       PRES   REMARKS
WASH NATIONAL  MOSUNNY   59  35  40 NW23G33   29.83S
DULLES         PTSUNNY   55  33  43 NW21G31   29.83F
FORT BELVOIR   MOSUNNY   58  33  39 NW21G33   29.83F
QUANTICO       MOSUNNY   60  32  34 NW16G33   29.84F
FREDERICKSBRG* MOSUNNY   59  33  36 NW15G23   29.83F
STAFFORD*      PTSUNNY   56  35  43 NW15G29   29.88F
WARRENTON      MOSUNNY   60  41  49 NW20G33   29.84F
CULPEPER*      MOSUNNY   61  28  29 N14G22    29.85S
MANASSAS*      MOSUNNY   57  36  44 NW20G26   29.84F
LEESBURG*      CLOUDY    55  39  54 N24G36    29.84F
WINCHESTER     MOSUNNY   54  34  47 NW24G31   29.87R
$$

VAZ048-049-060>072-079>083-231800-
CENTRAL AND SOUTH CENTRAL VIRGINIA...AND NORTH CENTRAL NORTH CAROLINA

CITY           SKY/WX    TMP DP  RH WIND       PRES   REMARKS
RICHMOND       MOSUNNY   65  29  25 NW15G29   29.81F
CHESTERFIELD*  SUNNY     64  30  27 W20G29    29.84
HANOVER        SUNNY     63  31  30 W12G23    29.83F
TAPPAHANNOCK*  MOSUNNY   61  26  26 NW12      29.81F
CHARLOTTSVILLE SUNNY     60  31  33 N14G22    29.84F
ORANGE*        SUNNY     59  32  36 W7G18     29.86S
LOUISA*        MOSUNNY   61  32  33 NW16      29.82F
FARMVILLE*     MOSUNNY   64  28  25 N8G16     29.82F
SOUTH HILL*    SUNNY     66  34  30 NW7       29.88F
ROANOKE RAPIDS SUNNY     54  32  43 NW12G17   29.82R
RALEIGH        MOSUNNY   66  30  26 NW9G21    29.87F
$$

VAZ088>098-231800-
SOUTHEAST VIRGINIA

CITY           SKY/WX    TMP DP  RH WIND       PRES   REMARKS
NORFOLK        SUNNY     65  33  30 NW12      29.77F
VIRGINIA BEACH MOSUNNY   65  35  33 N18G25    29.77S
NORFOLK NAVAL  MOSUNNY   66  35  31 W16G29    29.79S
WEST POINT*      N/A    N/A N/A N/A MISG        N/A
NEWPORT NEWS   SUNNY     68  32  26 NW18G32   29.79R
LANGLEY AFB    SUNNY     63  34  34 NW18G28   29.78S
FORT EUSTIS    SUNNY     63  41  43 NW12G23   29.78R
WILLIAMSBURG*  SUNNY     68  37  32 NW17G28   29.80F
FRANKLIN*      SUNNY     68  36  30 W16G22    29.79F
WAKEFIELD      SUNNY     65  28  24 NW14G23   29.81S
$$

VAZ020-022-025-037-045-231800-
WESTERN AND SOUTHWEST VIRGINIA

CITY           SKY/WX    TMP DP  RH WIND       PRES   REMARKS
STAUNTON*      SUNNY     56  29  34 NW15G21   29.88F
HOT SPRINGS VA SUNNY     46  27  46 NW23G30   29.91S
LYNCHBURG      SUNNY     67  29  24 VRB5      29.86F
DANVILLE       SUNNY     65  28  24 NW10G28   29.88S
MARTINSVILLE   SUNNY     64  26  24 NW6       29.91F
ROANOKE        SUNNY     61  26  26 W16G23    29.90F
BLACKSBURG     SUNNY     57  34  41 NW12G20   29.94S
DUBLIN*        SUNNY     56  27  32 N8        29.93F
MARION*        SUNNY     55  24  30 SW16G23   29.97S
HILLSVILLE*    SUNNY     54   3  13 NW21G28   29.95F
RICHLANDS*     SUNNY     55  28  36 NW10      29.98S
WISE*          SUNNY     54  23  30 NW10      30.02S
ABINGDON*      SUNNY     57  21  24 N8        29.99S
$$

MDZ021>025-VAZ099-100-231800-
SOUTHERN MARYLAND AND THE DELMARVA PENINSULA

CITY           SKY/WX    TMP DP  RH WIND       PRES   REMARKS
PATUXENT RIVER MOSUNNY   58  32  37 NW22G31   29.79S
BAY BRIDGE APT MOSUNNY   54  34  47 NW16G23   29.79S
LEONARDTOWN    MOSUNNY   55  32  41 NW15G26   29.81F
DOVER          PTSUNNY   55  35  47 NW22G35   29.70S
GEORGETOWN     SUNNY     58  34  40 NW18G29   29.73S
EASTON         MOSUNNY   57  37  47 NW17G30   29.81S
CAMBRIDGE      SUNNY     57  34  41 NW16G30   29.78R
SALISBURY      SUNNY     59  34  39 W18G36    29.74S
OCEAN CITY     SUNNY     59  34  39 NW21G29   29.72S
WALLOPS ISLAND MOSUNNY   60  36  40 NW28G40   29.75R
ACCOMACK*      MOSUNNY   57  32  38 NW28G38   29.77S
$$

NCZ012>017-030>032-231800-
EASTERN NORTH CAROLINA

CITY           SKY/WX    TMP DP  RH WIND       PRES   REMARKS
ELIZABETH CITY   N/A    N/A N/A N/A MISG      29.78
AHOSKIE*       MOSUNNY   65  42  41 NW8       29.81S
EDENTON*       SUNNY     66  42  40 NW14      29.79F
CURRITUCK*     SUNNY     68  33  27 W10G17    29.78F
KILL DEVIL HLS SUNNY     58  37  44 N8        29.77F
MANTEO         SUNNY     61  39  45 NE10      29.79F
CAPE HATTERAS  SUNNY     62  42  47 NE9G18    29.79S
GOLDSBORO      SUNNY     71  33  24 NW16      29.80F
WASHINGTON     MOSUNNY   66  44  45 NW9G17    29.80F
GREENVILLE     SUNNY     70  36  28 NW10      29.83F
NEW BERN       SUNNY     73  43  33 NW10G23   29.80S
WILMINGTON     SUNNY     78  41  26 NW16G23   29.80F
$$

VAZ048-231800-
ELSEWHERE

CITY           SKY/WX    TMP DP  RH WIND       PRES   REMARKS
HARRISBURG PA  PTSUNNY   55  35  47 NW22G30   29.78S
BALTIMORE      MOSUNNY   55  34  45 NW17G29   29.79S
ANNAPOLIS      MOSUNNY   55  36  48 NW17G26   29.78F
ANDREWS AFB    PTSUNNY   55  33  43 NW17G26   29.81S
WILMINGTON DE  PTSUNNY   56  35  45 NW20G35   29.73F
PHILADELPHIA   PTSUNNY   57  32  38 NW25G35   29.70F
WILDWOOD NJ*   MOSUNNY   55  36  47 NW22G31   29.71S
ATLANTIC CITY  PTSUNNY   58  34  40 W24G37    29.65F
HENDERSON NC   SUNNY     64  27  25 W7G23     29.86S
GREENSBORO     MOSUNNY   66  24  20 NW14G20   29.89S
ROCKY MOUNT    SUNNY     69  32  25 W15G26    29.83S
FAYETTEVILLE   SUNNY     73  31  21 W12       29.83F
CHARLOTTE      SUNNY     72  27  18 NW10G16   29.89F
$$

VAZ100-231800-
MARINE

STATION/POSITION TIME  TEMP    WIND        PRES    WAVE   SWELL
                       AIR SEA DIR/SP/G            HT/PER HT/PER
                 (UTC) (F)     (DEG/KT/KT) (MB)    (FT/S) (FT/S)
44066 TX TWR #4  1700   47 44  280/ 16/ 19 1001.3F   6/ 6   2/ 8
CAPE MAY NJ      1700   54 57  330/ 23/ 30 1005.4F
LEWES DE         1700   53 52  320/ 25/ 30 1005.3F
15NM E FENWICK I 1700   51 47              1005.5F   4/ 6
OCEAN-CITY-INLET 1700   56 54  310/ 12/ 20 1005.7S
WACHAPREAGUE VA  1700   58 59  310/  6/ 16 1007.7F
THOMAS POINT MD  1700   53 54  300/ 21/ 24 1008.7F
GOOSES REEF MD   1700   53     330/ 17/ 23   N/A
COVE POINT MD    1700   53     330/ 20/ 26 1008.4F
SOLOMONS ISLAND  1700      55                N/A
BISHOPS HEAD MD  1700   54 58  320/ 21/ 27 1008.3S
PINEY POINT MD   1700          330/ 24/ 27   N/A
POTOMAC MD       1700   53     310/ 21/ 25 1008.2R
CAMBRIDGE MD     1700   53 57  300/ 19/ 24 1007.8F
LEWISETTA VA     1700   54 58  320/ 22/ 31 1009.2F
RAPPAHANNOCK LGT 1700          330/ 22/ 25 1008.7R
STINGRAY PT      1700   57     320/ 21/ 25 1008.4R
YORK RVR RNG VA  1700   59     330/ 20/ 26 1007.6F
YORKTOWN VA      1700   59 57  320/ 21/ 22 1008.4R
JAMESTOWN VA     1700   59     330/ 19/ 25   N/A
DOMINION TERM VA 1700   60     330/ 17/ 23 1008.3F
KIPTOPEKE VA     1700      56  350/ 25/ 30   N/A
CHES BAY BRIDGE  1700   56 54  330/ 15/ 18 1008.2S
CAPE HENRY VA    1700   56     340/ 11/ 14   N/A
CHESAPEAKE LGHT  1600   54     340/ 19/ 20 1008.8F
WILLOUBY STN VA  1700   60     290/ 23/ 25 1007.3S
S CRANEY ISL VA  1700          300/ 14/ 20 1008.3F
CAPE HENRY BUOY  1700      49                N/A     4/ 9
1ST LANDING BUOY 1700      48                N/A     4/ 9   2/ 9
64NM E OF VA BCH 1700   51 49  320/ 12/ 14 1008.0R   4/ 5   3/ 8
DUCK PIER NC     1700   53 50   20/ 12/ 14 1007.5S
44100 DUCK FRF   1700      49                N/A     4/ 5
44056 DUCK FRF   1700      50                N/A     3/ 8
OREGON INLET NC  1700   56 57  360/ 10/ 14 1008.5F
HATTERAS NC      1700   58 59   30/ 11/ 17 1008.8F
DIAMOND SHLS NC  1700   60 75   10/ 17/ 21 1008.1F   7/ 6   2/ 9
CAPE LOOKOUT NC  1600   60      80/ 12/ 13 1008.9F
FRYING PAN SHLS  1700   65 68  260/ 10/ 10 1009.8F   3/ 9   2/ 9
$$



USA.gov is the U.S. government's official web portal to all federal, state and local government web resources and services.